#�ϑ�����,���ϕ���,���ϕ���,�ő啗��,�ő啗����������,�ő�u�ԕ���,�ő�u�ԕ�����������
#(�N����),(m/s)   ,(16����),(m/s)   ,(16����)        ,(m/s)       ,(16����)            
2016/12/24 0:01,3.1,14,3.2,13,4.4,11
2016/12/24 0:02,3,14,3.1,13,4.5,12
2016/12/24 0:03,2.8,13,3,13,4.3,11
2016/12/24 0:04,2.6,13,2.7,13,5.5,9
2016/12/24 0:05,2.3,12,2.6,13,5.1,9
2016/12/24 0:06,2.3,12,2.3,14,2.9,9
2016/12/24 0:07,2.3,11,2.3,13,4.2,10
2016/12/24 0:08,2.4,11,2.4,14,4.5,10
2016/12/24 0:09,2.3,11,2.4,14,6.1,9
2016/12/24 0:10,2.4,10,2.4,14,5.1,10
2016/12/24 0:11,2.5,10,2.5,14,5,10
2016/12/24 0:12,2.4,10,2.5,14,4.4,10
2016/12/24 0:13,2.5,10,2.5,13,5.5,10
2016/12/24 0:14,2.5,10,2.6,13,4.7,10
2016/12/24 0:15,2.5,10,2.5,10,6,10
2016/12/24 0:16,2.8,10,2.8,10,7.5,9
2016/12/24 0:17,2.9,10,2.9,10,5.2,9
2016/12/24 0:18,2.7,10,2.8,10,3.8,10
2016/12/24 0:19,2.7,9,2.7,10,3.6,9
2016/12/24 0:20,2.5,9,2.6,10,3.2,9
2016/12/24 0:21,2.3,9,2.5,10,2.7,8
2016/12/24 0:22,2.2,9,2.3,10,2.4,8
2016/12/24 0:23,2,9,2.2,10,1.3,6
2016/12/24 0:24,1.8,9,2,10,1.9,3
2016/12/24 0:25,1.7,8,1.9,10,2.4,3
2016/12/24 0:26,1.5,8,1.7,10,2.9,4
2016/12/24 0:27,1.3,6,1.5,10,2.6,3
2016/12/24 0:28,1.3,6,1.3,9,2.4,6
2016/12/24 0:29,1.3,6,1.3,9,3.6,7
2016/12/24 0:30,1.4,6,1.4,9,3.3,8
2016/12/24 0:31,1.4,6,1.4,9,2.4,8
2016/12/24 0:32,1.4,6,1.4,9,2.4,9
2016/12/24 0:33,1.3,5,1.4,9,0.6,14
2016/12/24 0:34,1.3,6,1.3,9,1.9,9
2016/12/24 0:35,1.3,7,1.3,8,2.9,9
2016/12/24 0:36,1.3,8,1.4,7,1.8,8
2016/12/24 0:37,1.1,8,1.2,6,0.4,7
2016/12/24 0:38,1.1,9,1.1,6,2.4,1
2016/12/24 0:39,1.1,10,1.1,6,2.5,15
2016/12/24 0:40,1,12,1.1,6,2,15
2016/12/24 0:41,1,13,1,6,1.8,15
2016/12/24 0:42,0.9,13,0.9,6,1,12
2016/12/24 0:43,1,13,1,8,1.4,11
2016/12/24 0:44,1,13,1.1,8,1.4,12
2016/12/24 0:45,1,14,1,8,1.5,15
2016/12/24 0:46,1,14,1,8,2.6,16
2016/12/24 0:47,1.2,14,1.2,14,2.5,1
2016/12/24 0:48,1.2,14,1.2,14,1.4,15
2016/12/24 0:49,1.1,14,1.2,14,0.9,14
2016/12/24 0:50,1,15,1.1,14,1.4,1
2016/12/24 0:51,1,15,1,14,1.4,16
2016/12/24 0:52,1,16,1,14,0.8,4
2016/12/24 0:53,0.9,16,1,14,0.8,14
2016/12/24 0:54,0.9,16,0.9,14,1.9,12
2016/12/24 0:55,0.9,16,0.9,14,0.9,12
2016/12/24 0:56,0.7,16,0.8,14,1.1,16
2016/12/24 0:57,0.6,16,0.7,14,0.8,3
2016/12/24 0:58,0.5,2,0.6,14,1,2
2016/12/24 0:59,0.5,3,0.5,14,1,3
2016/12/24 1:00,0.5,3,0.5,15,1.5,11
2016/12/24 1:01,0.6,7,0.6,15,1.6,10
2016/12/24 1:02,0.6,11,0.6,16,1.3,11
2016/12/24 1:03,0.7,11,0.7,16,1.4,9
2016/12/24 1:04,0.6,10,0.7,16,1.5,9
2016/12/24 1:05,0.7,10,0.7,16,1.6,10
2016/12/24 1:06,0.8,10,0.8,10,1.8,10
2016/12/24 1:07,0.8,11,0.8,10,1.1,11
2016/12/24 1:08,0.9,11,0.9,11,3,1
2016/12/24 1:09,1.1,12,1.1,12,4.7,2
2016/12/24 1:10,1.3,12,1.3,12,4.5,2
2016/12/24 1:11,1.5,13,1.5,13,4.5,15
2016/12/24 1:12,1.7,14,1.7,13,5.1,15
2016/12/24 1:13,2.1,14,2.1,14,7.8,16
2016/12/24 1:14,2.6,15,2.6,15,7.8,1
2016/12/24 1:15,2.9,15,2.9,15,5.8,16
2016/12/24 1:16,3.1,15,3.1,15,6.1,16
2016/12/24 1:17,3.2,16,3.2,16,2.1,13
2016/12/24 1:18,3.3,15,3.3,16,3.2,16
2016/12/24 1:19,3.2,15,3.3,16,3.6,14
2016/12/24 1:20,3,15,3.2,16,2.5,15
2016/12/24 1:21,3,15,3,16,4.2,14
2016/12/24 1:22,2.9,15,3,16,4.9,16
2016/12/24 1:23,2.8,15,3,16,4.5,15
2016/12/24 1:24,2.5,15,2.7,16,4.3,16
2016/12/24 1:25,2.2,15,2.4,16,4.3,16
2016/12/24 1:26,2,15,2.2,16,2.7,14
2016/12/24 1:27,1.9,15,2,16,1.8,9
2016/12/24 1:28,1.9,15,1.9,15,2,10
2016/12/24 1:29,1.8,15,1.9,15,3.1,8
2016/12/24 1:30,2,14,2,15,3.9,10
2016/12/24 1:31,2,13,2.1,15,3.8,11
2016/12/24 1:32,1.9,12,2,15,3.6,10
2016/12/24 1:33,1.8,11,1.9,15,2.6,10
2016/12/24 1:34,1.7,11,1.8,15,1.9,9
2016/12/24 1:35,1.6,11,1.7,15,1.8,12
2016/12/24 1:36,1.5,11,1.5,14,1,13
2016/12/24 1:37,1.4,11,1.5,14,0.8,14
2016/12/24 1:38,1.4,11,1.4,14,1.3,10
2016/12/24 1:39,1.3,11,1.4,14,1.3,1
2016/12/24 1:40,1.1,11,1.3,14,1,8
2016/12/24 1:41,0.9,11,1,13,2.1,16
2016/12/24 1:42,0.8,11,0.9,12,1.6,10
2016/12/24 1:43,0.7,11,0.8,11,1.5,9
2016/12/24 1:44,0.6,11,0.6,11,0.3,12
2016/12/24 1:45,0.5,11,0.6,11,1,10
2016/12/24 1:46,0.5,10,0.6,11,1.1,10
2016/12/24 1:47,0.6,10,0.6,11,2.4,11
2016/12/24 1:48,0.8,9,0.8,11,4.3,9
2016/12/24 1:49,1.1,9,1.1,11,5,9
2016/12/24 1:50,1.4,10,1.4,10,5.8,10
2016/12/24 1:51,1.6,10,1.6,10,5.5,12
2016/12/24 1:52,1.8,10,1.8,10,3.8,11
2016/12/24 1:53,2.1,10,2.1,10,4.8,10
2016/12/24 1:54,2.3,10,2.3,10,4.3,12
2016/12/24 1:55,2.4,11,2.4,10,2.4,14
2016/12/24 1:56,2.5,11,2.5,11,2.7,9
2016/12/24 1:57,2.5,11,2.5,11,2.5,11
2016/12/24 1:58,2.5,11,2.5,11,4.3,10
2016/12/24 1:59,2.4,11,2.5,11,3.9,10
2016/12/24 2:00,2.2,11,2.4,11,2.7,9
2016/12/24 2:01,1.9,11,2.1,11,1,14
2016/12/24 2:02,1.7,12,1.9,11,1.4,11
2016/12/24 2:03,1.4,12,1.7,11,0.8,4
2016/12/24 2:04,1.2,12,1.4,11,1.3,3
2016/12/24 2:05,1.1,11,1.2,11,1.1,2
2016/12/24 2:06,1,12,1.1,11,1.9,13
2016/12/24 2:07,1,12,1,11,2,13
2016/12/24 2:08,1,13,1,11,3.7,13
2016/12/24 2:09,0.9,13,1,11,3,13
2016/12/24 2:10,0.8,13,0.9,11,2,8
2016/12/24 2:11,0.9,12,0.9,11,3.7,11
2016/12/24 2:12,1.1,12,1.1,12,3.5,10
2016/12/24 2:13,1.2,12,1.2,12,3.2,10
2016/12/24 2:14,1.4,12,1.4,12,3.5,10
2016/12/24 2:15,1.5,11,1.5,12,3.1,10
2016/12/24 2:16,1.5,11,1.6,11,1.6,11
2016/12/24 2:17,1.4,11,1.5,11,1.1,11
2016/12/24 2:18,1.3,11,1.4,11,0.5,1
2016/12/24 2:19,1.2,11,1.3,11,0.9,16
2016/12/24 2:20,1.2,12,1.2,11,1.6,1
2016/12/24 2:21,1.1,13,1.2,11,1.4,16
2016/12/24 2:22,1,13,1.1,11,1,10
2016/12/24 2:23,0.8,13,1,11,0.5,10
2016/12/24 2:24,0.8,13,0.8,11,2.5,12
2016/12/24 2:25,0.8,13,0.8,11,2.6,12
2016/12/24 2:26,0.9,13,0.9,11,3.5,12
2016/12/24 2:27,0.9,13,0.9,11,1.8,12
2016/12/24 2:28,1.1,13,1.1,11,3.5,12
2016/12/24 2:29,1.1,13,1.1,12,1.8,13
2016/12/24 2:30,1.1,13,1.2,12,1.9,16
2016/12/24 2:31,1.1,13,1.1,13,1.5,2
2016/12/24 2:32,1.2,13,1.2,13,1.6,16
2016/12/24 2:33,1.3,14,1.3,14,2.2,3
2016/12/24 2:34,1.3,15,1.3,14,2,3
2016/12/24 2:35,1.1,1,1.3,14,1.4,4
2016/12/24 2:36,1,1,1.1,14,0.6,12
2016/12/24 2:37,0.9,1,1,14,0.9,14
2016/12/24 2:38,0.7,2,0.9,14,0.3,6
2016/12/24 2:39,0.7,2,0.7,14,0.9,8
2016/12/24 2:40,0.6,3,0.7,14,0.8,7
2016/12/24 2:41,0.5,3,0.6,14,0.4,13
2016/12/24 2:42,0.5,6,0.5,14,0.3,5
2016/12/24 2:43,0.5,6,0.5,14,1.4,6
2016/12/24 2:44,0.4,8,0.5,15,1,5
2016/12/24 2:45,0.3,9,0.3,1,0.9,1
2016/12/24 2:46,0.4,8,0.4,1,2,16
2016/12/24 2:47,0.5,6,0.5,1,2.4,2
2016/12/24 2:48,0.6,5,0.6,2,1.9,16
2016/12/24 2:49,0.6,4,0.6,2,2,12
2016/12/24 2:50,0.6,2,0.6,3,1.3,15
2016/12/24 2:51,0.7,4,0.7,3,1.1,10
2016/12/24 2:52,0.8,4,0.8,4,1.1,8
2016/12/24 2:53,0.8,5,0.8,4,1.6,8
2016/12/24 2:54,0.9,6,0.9,6,1.9,9
2016/12/24 2:55,0.9,7,1,6,1.6,7
2016/12/24 2:56,0.9,8,0.9,6,0.9,14
2016/12/24 2:57,0.8,8,0.9,6,1.5,7
2016/12/24 2:58,0.8,8,0.8,6,1.5,6
2016/12/24 2:59,0.8,7,0.9,6,2.5,2
2016/12/24 3:00,0.8,6,0.8,6,1,1
2016/12/24 3:01,0.9,6,0.9,6,2,8
2016/12/24 3:02,0.9,6,0.9,6,1.5,7
2016/12/24 3:03,0.9,6,0.9,6,2.5,8
2016/12/24 3:04,0.9,6,1,6,2.2,8
2016/12/24 3:05,0.9,6,0.9,6,0.6,8
2016/12/24 3:06,0.9,7,0.9,6,0.6,7
2016/12/24 3:07,0.8,7,0.9,6,0.6,8
2016/12/24 3:08,0.7,7,0.8,6,0.1,8
2016/12/24 3:09,0.6,7,0.7,6,0.6,5
2016/12/24 3:10,0.6,7,0.6,6,0.4,6
2016/12/24 3:11,0.5,7,0.6,6,1,9
2016/12/24 3:12,0.5,7,0.5,6,1.5,8
2016/12/24 3:13,0.3,7,0.5,6,1,12
2016/12/24 3:14,0.2,7,0.3,6,0.4,8
2016/12/24 3:15,0.2,8,0.2,6,1,9
2016/12/24 3:16,0.2,8,0.2,7,0.5,7
2016/12/24 3:17,0.2,8,0.2,7,0.4,12
2016/12/24 3:18,0.2,9,0.2,7,0.4,9
2016/12/24 3:19,0.2,9,0.2,7,0.3,6
2016/12/24 3:20,0.3,10,0.3,7,2.5,9
2016/12/24 3:21,0.4,10,0.4,7,2.7,8
2016/12/24 3:22,0.5,9,0.5,7,3.1,8
2016/12/24 3:23,0.7,9,0.7,9,2.5,9
2016/12/24 3:24,0.7,9,0.7,9,1.3,9
2016/12/24 3:25,0.7,9,0.7,9,0.5,6
2016/12/24 3:26,0.7,8,0.7,9,0.9,8
2016/12/24 3:27,0.8,8,0.8,8,0.6,5
2016/12/24 3:28,0.8,7,0.8,8,0.5,5
2016/12/24 3:29,0.8,7,0.8,8,0.6,5
2016/12/24 3:30,0.8,6,0.8,8,0.8,4
2016/12/24 3:31,0.7,6,0.8,8,1.3,5
2016/12/24 3:32,0.6,6,0.7,8,1.5,5
2016/12/24 3:33,0.6,5,0.6,8,1.3,3
2016/12/24 3:34,0.6,5,0.6,8,1.1,5
2016/12/24 3:35,0.6,4,0.6,8,0.9,3
2016/12/24 3:36,0.7,4,0.7,8,1.9,3
2016/12/24 3:37,0.8,4,0.8,8,1.9,3
2016/12/24 3:38,0.9,4,0.9,4,1.5,4
2016/12/24 3:39,0.9,4,0.9,4,1.3,4
2016/12/24 3:40,0.9,4,0.9,4,0.5,4
2016/12/24 3:41,0.9,4,0.9,4,1,5
2016/12/24 3:42,0.8,4,0.9,4,0.9,5
2016/12/24 3:43,0.8,4,0.8,4,1,5
2016/12/24 3:44,0.8,4,0.8,4,0.9,3
2016/12/24 3:45,0.8,4,0.8,4,0.5,5
2016/12/24 3:46,0.6,4,0.8,4,0.5,5
2016/12/24 3:47,0.6,4,0.6,4,0.8,5
2016/12/24 3:48,0.5,4,0.6,4,0.8,5
2016/12/24 3:49,0.4,4,0.5,4,0.1,5
2016/12/24 3:50,0.4,5,0.4,4,0,7
2016/12/24 3:51,0.3,5,0.4,4,0,8
2016/12/24 3:52,0.2,5,0.3,4,0.1,15
2016/12/24 3:53,0.2,6,0.2,4,0.3,14
2016/12/24 3:54,0.1,7,0.2,4,0,13
2016/12/24 3:55,0.1,7,0.1,4,0.4,16
2016/12/24 3:56,0.1,9,0.1,4,0.3,1
2016/12/24 3:57,0.1,11,0.1,4,1,15
2016/12/24 3:58,0.2,12,0.2,4,1.3,15
2016/12/24 3:59,0.3,13,0.3,4,1.4,15
2016/12/24 4:00,0.4,14,0.4,5,1.4,15
2016/12/24 4:01,0.5,14,0.5,14,1.4,15
2016/12/24 4:02,0.6,15,0.6,15,1.5,16
2016/12/24 4:03,0.7,15,0.7,15,1.4,15
2016/12/24 4:04,0.8,15,0.8,15,1.5,14
2016/12/24 4:05,0.9,15,0.9,15,1.9,13
2016/12/24 4:06,1.1,14,1.1,14,2.1,12
2016/12/24 4:07,1.2,14,1.2,14,2.6,12
2016/12/24 4:08,1.4,14,1.4,14,3.3,11
2016/12/24 4:09,1.5,13,1.5,14,3.3,11
2016/12/24 4:10,1.6,13,1.6,13,3.1,11
2016/12/24 4:11,1.7,13,1.7,13,2.5,12
2016/12/24 4:12,1.8,12,1.8,13,2.6,12
2016/12/24 4:13,1.9,12,1.9,12,2.7,11
2016/12/24 4:14,2,12,2,12,2.9,11
2016/12/24 4:15,2.1,12,2.1,12,2.9,11
2016/12/24 4:16,2.2,11,2.2,11,2.1,11
2016/12/24 4:17,2.1,11,2.2,11,2,11
2016/12/24 4:18,2.1,11,2.1,11,2.2,11
2016/12/24 4:19,2,11,2.1,11,2.6,12
2016/12/24 4:20,2,11,2,11,2.5,12
2016/12/24 4:21,2.1,11,2.1,11,2.7,11
2016/12/24 4:22,2.1,11,2.1,11,2.9,10
2016/12/24 4:23,2,11,2.1,11,2.5,10
2016/12/24 4:24,2,11,2.1,11,2.4,11
2016/12/24 4:25,2,11,2,11,3,10
2016/12/24 4:26,1.9,11,2,11,2.4,10
2016/12/24 4:27,1.9,11,2,11,2.5,11
2016/12/24 4:28,2,11,2,11,2.6,11
2016/12/24 4:29,1.9,11,2,11,2.5,11
2016/12/24 4:30,1.8,11,1.9,11,1.6,12
2016/12/24 4:31,1.7,11,1.8,11,1.6,10
2016/12/24 4:32,1.5,11,1.6,11,0.8,10
2016/12/24 4:33,1.4,11,1.5,11,0.9,13
2016/12/24 4:34,1.2,11,1.3,11,1,12
2016/12/24 4:35,1.2,11,1.2,11,1.5,12
2016/12/24 4:36,1.1,11,1.1,11,1.9,10
2016/12/24 4:37,1,11,1.1,11,1.6,11
2016/12/24 4:38,1,11,1,11,2.5,10
2016/12/24 4:39,1,11,1,11,2.6,11
2016/12/24 4:40,1.1,11,1.1,11,4.2,10
2016/12/24 4:41,1.3,11,1.3,11,3.2,10
2016/12/24 4:42,1.5,11,1.5,11,3,10
2016/12/24 4:43,1.6,10,1.6,11,3.3,9
2016/12/24 4:44,1.7,10,1.7,10,2.2,11
2016/12/24 4:45,1.7,10,1.7,10,2.2,12
2016/12/24 4:46,1.7,11,1.7,10,1.8,11
2016/12/24 4:47,1.8,11,1.8,11,2.5,11
2016/12/24 4:48,1.8,11,1.8,11,2.4,11
2016/12/24 4:49,1.8,11,1.8,11,2.1,11
2016/12/24 4:50,1.6,11,1.8,11,1.1,10
2016/12/24 4:51,1.4,11,1.6,11,0.6,10
2016/12/24 4:52,1.2,10,1.4,11,0,8
2016/12/24 4:53,1,11,1.2,11,0.9,12
2016/12/24 4:54,1,11,1,11,1.1,13
2016/12/24 4:55,1,11,1,11,1.3,14
2016/12/24 4:56,0.9,11,1,11,1.1,13
2016/12/24 4:57,0.8,11,0.9,11,1.5,11
2016/12/24 4:58,0.7,12,0.8,11,1,12
2016/12/24 4:59,0.6,12,0.7,11,1,12
2016/12/24 5:00,0.6,12,0.6,11,0.8,13
2016/12/24 5:01,0.6,13,0.6,11,0.4,16
2016/12/24 5:02,0.6,14,0.6,10,0.9,16
2016/12/24 5:03,0.7,14,0.7,11,1.5,2
2016/12/24 5:04,0.7,15,0.7,11,1.8,3
2016/12/24 5:05,0.7,16,0.7,11,1.9,3
2016/12/24 5:06,0.7,16,0.7,11,1.3,3
2016/12/24 5:07,0.7,1,0.7,11,1.1,3
2016/12/24 5:08,0.7,1,0.7,12,1.3,15
2016/12/24 5:09,0.7,1,0.7,14,2,16
2016/12/24 5:10,0.8,2,0.8,2,1.9,16
2016/12/24 5:11,0.9,2,0.9,2,1.8,1
2016/12/24 5:12,0.9,2,0.9,2,1.5,1
2016/12/24 5:13,0.9,2,0.9,2,1.3,2
2016/12/24 5:14,0.9,2,0.9,2,1.4,1
2016/12/24 5:15,0.8,1,0.9,2,0.8,16
2016/12/24 5:16,0.7,1,0.8,2,0.3,2
2016/12/24 5:17,0.7,1,0.7,2,0.8,16
2016/12/24 5:18,0.6,1,0.7,2,0.6,16
2016/12/24 5:19,0.6,2,0.7,2,0.5,1
2016/12/24 5:20,0.5,2,0.6,2,0.8,16
2016/12/24 5:21,0.4,1,0.5,2,0.6,15
2016/12/24 5:22,0.4,1,0.4,2,0.5,16
2016/12/24 5:23,0.3,1,0.4,2,0.6,10
2016/12/24 5:24,0.3,1,0.3,2,1.5,8
2016/12/24 5:25,0.3,1,0.3,1,1.3,8
2016/12/24 5:26,0.3,16,0.3,1,1.4,8
2016/12/24 5:27,0.5,13,0.5,1,1.9,9
2016/12/24 5:28,0.5,11,0.5,1,1.5,9
2016/12/24 5:29,0.5,11,0.5,2,0.3,12
2016/12/24 5:30,0.5,10,0.5,2,0.5,3
2016/12/24 5:31,0.5,10,0.5,14,1.9,2
2016/12/24 5:32,0.6,9,0.6,9,1.4,2
2016/12/24 5:33,0.6,9,0.6,9,0.8,16
2016/12/24 5:34,0.5,11,0.6,9,0.3,1
2016/12/24 5:35,0.5,2,0.5,9,0.4,4
2016/12/24 5:36,0.5,2,0.5,9,1,2
2016/12/24 5:37,0.3,1,0.5,9,0.6,2
2016/12/24 5:38,0.3,1,0.3,9,0.4,8
2016/12/24 5:39,0.3,1,0.3,9,0.8,10
2016/12/24 5:40,0.3,1,0.3,9,0.6,10
2016/12/24 5:41,0.3,1,0.3,9,1.9,1
2016/12/24 5:42,0.4,1,0.4,9,1.8,16
2016/12/24 5:43,0.5,1,0.5,9,1.9,16
2016/12/24 5:44,0.6,16,0.6,1,1.6,14
2016/12/24 5:45,0.7,15,0.7,16,0.9,15
2016/12/24 5:46,0.6,14,0.7,16,0.1,12
2016/12/24 5:47,0.7,14,0.7,16,1.6,16
2016/12/24 5:48,0.8,15,0.8,14,1.8,16
2016/12/24 5:49,0.7,15,0.8,14,0.3,16
2016/12/24 5:50,0.7,15,0.7,14,0.4,7
2016/12/24 5:51,0.6,14,0.7,14,0.8,8
2016/12/24 5:52,0.6,13,0.6,14,1.1,7
2016/12/24 5:53,0.5,12,0.6,14,1.6,8
2016/12/24 5:54,0.5,10,0.5,14,1.6,8
2016/12/24 5:55,0.5,9,0.5,14,0.8,10
2016/12/24 5:56,0.5,6,0.5,14,0,3
2016/12/24 5:57,0.4,6,0.5,14,0.5,2
2016/12/24 5:58,0.4,6,0.4,15,1.3,15
2016/12/24 5:59,0.5,6,0.5,15,1,16
2016/12/24 6:00,0.5,4,0.5,15,1,16
2016/12/24 6:01,0.5,2,0.5,14,1,16
2016/12/24 6:02,0.5,1,0.5,13,1.3,16
2016/12/24 6:03,0.5,16,0.5,11,1.1,14
2016/12/24 6:04,0.4,16,0.5,10,1,14
2016/12/24 6:05,0.4,16,0.4,8,0.6,14
2016/12/24 6:06,0.5,15,0.5,6,0.8,14
2016/12/24 6:07,0.5,15,0.5,6,0.9,16
2016/12/24 6:08,0.5,15,0.5,6,1,1
2016/12/24 6:09,0.5,15,0.5,5,1.1,16
2016/12/24 6:10,0.6,15,0.6,15,1.4,1
2016/12/24 6:11,0.6,15,0.6,15,1,1
2016/12/24 6:12,0.6,15,0.6,15,0.8,1
2016/12/24 6:13,0.6,16,0.6,15,1.8,1
2016/12/24 6:14,0.6,16,0.6,15,1.5,16
2016/12/24 6:15,0.7,1,0.7,16,1.3,1
2016/12/24 6:16,0.7,1,0.7,16,1,3
2016/12/24 6:17,0.7,1,0.7,16,1.3,3
2016/12/24 6:18,0.8,2,0.8,2,0.9,3
2016/12/24 6:19,0.7,2,0.7,2,0.8,4
2016/12/24 6:20,0.7,2,0.7,2,1.1,4
2016/12/24 6:21,0.8,3,0.8,2,2.1,3
2016/12/24 6:22,0.9,3,0.9,3,2.1,3
2016/12/24 6:23,0.9,3,0.9,3,2,1
2016/12/24 6:24,0.9,3,0.9,3,1.9,15
2016/12/24 6:25,0.9,2,0.9,3,1.6,15
2016/12/24 6:26,0.9,2,0.9,3,0.6,16
2016/12/24 6:27,0.8,2,0.9,3,0.5,16
2016/12/24 6:28,0.8,2,0.8,3,0.6,2
2016/12/24 6:29,0.9,2,0.9,3,1.6,2
2016/12/24 6:30,0.9,1,0.9,3,1.3,3
2016/12/24 6:31,0.8,1,0.9,3,1.5,2
2016/12/24 6:32,0.7,1,0.8,3,1.1,2
2016/12/24 6:33,0.7,1,0.7,3,1,3
2016/12/24 6:34,0.7,2,0.7,3,1.3,3
2016/12/24 6:35,0.6,2,0.7,2,0.9,4
2016/12/24 6:36,0.6,3,0.6,2,0.9,9
2016/12/24 6:37,0.6,3,0.6,2,0.6,9
2016/12/24 6:38,0.6,4,0.6,2,0.3,6
2016/12/24 6:39,0.5,4,0.6,2,0.3,11
2016/12/24 6:40,0.4,5,0.4,1,0.5,15
2016/12/24 6:41,0.4,5,0.4,1,1.3,13
2016/12/24 6:42,0.4,6,0.4,1,1.6,15
2016/12/24 6:43,0.5,11,0.5,1,1.4,15
2016/12/24 6:44,0.5,12,0.5,2,1.1,14
2016/12/24 6:45,0.5,12,0.5,2,1,13
2016/12/24 6:46,0.5,13,0.5,3,0.3,13
2016/12/24 6:47,0.5,13,0.5,3,0,10
2016/12/24 6:48,0.5,13,0.5,4,0.6,10
2016/12/24 6:49,0.5,12,0.5,7,0.8,10
2016/12/24 6:50,0.6,12,0.6,12,1.1,11
2016/12/24 6:51,0.6,12,0.6,12,1.5,10
2016/12/24 6:52,0.6,11,0.6,12,1.4,10
2016/12/24 6:53,0.5,11,0.6,12,0.8,9
2016/12/24 6:54,0.4,10,0.5,12,0.8,1
2016/12/24 6:55,0.5,10,0.5,12,1.5,1
2016/12/24 6:56,0.5,10,0.5,12,1.3,16
2016/12/24 6:57,0.5,11,0.5,12,0.8,16
2016/12/24 6:58,0.5,12,0.5,12,0.1,2
2016/12/24 6:59,0.5,11,0.5,12,0.6,9
2016/12/24 7:00,0.5,12,0.5,12,0.6,10
2016/12/24 7:01,0.4,15,0.4,12,0.5,15
2016/12/24 7:02,0.3,16,0.3,11,1.4,16
2016/12/24 7:03,0.4,16,0.4,11,1.8,15
2016/12/24 7:04,0.4,15,0.5,10,1.3,15
2016/12/24 7:05,0.3,15,0.4,10,0.1,15
2016/12/24 7:06,0.3,15,0.3,10,0.1,15
2016/12/24 7:07,0.3,15,0.3,11,0,3
2016/12/24 7:08,0.3,15,0.3,12,0.1,16
2016/12/24 7:09,0.3,15,0.3,12,0.8,16
2016/12/24 7:10,0.3,16,0.3,15,0.8,16
2016/12/24 7:11,0.3,16,0.3,15,0.6,16
2016/12/24 7:12,0.2,16,0.3,15,0.1,6
2016/12/24 7:13,0.2,1,0.2,15,0.5,2
2016/12/24 7:14,0.2,1,0.2,15,1,16
2016/12/24 7:15,0.2,1,0.2,15,1.4,1
2016/12/24 7:16,0.3,1,0.3,15,1.8,16
2016/12/24 7:17,0.4,1,0.4,1,1.6,2
2016/12/24 7:18,0.5,2,0.5,2,1.5,3
2016/12/24 7:19,0.7,2,0.7,2,2.1,4
2016/12/24 7:20,0.8,3,0.8,3,1.8,5
2016/12/24 7:21,0.8,3,0.8,3,1.1,5
2016/12/24 7:22,0.9,2,0.9,3,0.6,5
2016/12/24 7:23,0.9,2,0.9,3,0.5,16
2016/12/24 7:24,0.8,2,0.9,3,0.1,15
2016/12/24 7:25,0.8,2,0.8,3,0.5,16
2016/12/24 7:26,0.7,2,0.8,3,0.5,4
2016/12/24 7:27,0.6,2,0.7,3,0.3,1
2016/12/24 7:28,0.5,2,0.6,3,0.8,4
2016/12/24 7:29,0.4,2,0.5,3,0.6,4
2016/12/24 7:30,0.2,2,0.4,3,0.5,6
2016/12/24 7:31,0.2,2,0.2,3,1.5,4
2016/12/24 7:32,0.2,2,0.2,2,1,5
2016/12/24 7:33,0.2,3,0.2,2,0.3,7
2016/12/24 7:34,0.2,4,0.2,2,0.1,11
2016/12/24 7:35,0.2,4,0.2,2,0.4,3
2016/12/24 7:36,0.2,4,0.2,2,0.5,3
2016/12/24 7:37,0.2,4,0.2,2,0.5,16
2016/12/24 7:38,0.2,4,0.2,2,0.3,4
2016/12/24 7:39,0.2,5,0.2,2,0.8,8
2016/12/24 7:40,0.2,5,0.2,2,1,6
2016/12/24 7:41,0.2,5,0.2,2,0.6,4
2016/12/24 7:42,0.2,4,0.2,3,0.5,16
2016/12/24 7:43,0.2,3,0.2,3,1.1,1
2016/12/24 7:44,0.3,3,0.3,3,1.4,1
2016/12/24 7:45,0.4,3,0.4,3,1.6,16
2016/12/24 7:46,0.5,2,0.5,2,1.6,16
2016/12/24 7:47,0.5,2,0.5,2,1.4,1
2016/12/24 7:48,0.5,1,0.5,2,0.8,16
2016/12/24 7:49,0.5,1,0.6,1,0.3,16
2016/12/24 7:50,0.5,1,0.5,1,1.1,16
2016/12/24 7:51,0.6,16,0.6,1,1.5,16
2016/12/24 7:52,0.7,16,0.7,16,1.5,16
2016/12/24 7:53,0.7,16,0.7,16,0.9,15
2016/12/24 7:54,0.6,16,0.7,16,0.1,16
2016/12/24 7:55,0.5,16,0.6,16,0,2
2016/12/24 7:56,0.4,16,0.5,16,0.3,16
2016/12/24 7:57,0.4,16,0.4,16,1,16
2016/12/24 7:58,0.4,16,0.4,16,0.9,16
2016/12/24 7:59,0.4,16,0.4,16,1,16
2016/12/24 8:00,0.5,16,0.5,16,0.9,16
2016/12/24 8:01,0.4,16,0.5,16,1.3,1
2016/12/24 8:02,0.5,16,0.5,16,1.6,1
2016/12/24 8:03,0.4,1,0.4,16,0.6,2
2016/12/24 8:04,0.5,1,0.5,16,0.6,2
2016/12/24 8:05,0.5,1,0.5,16,0.3,2
2016/12/24 8:06,0.5,1,0.5,16,0,1
2016/12/24 8:07,0.4,1,0.5,16,0,1
2016/12/24 8:08,0.4,1,0.4,16,0.1,5
2016/12/24 8:09,0.3,1,0.4,16,0.1,15
2016/12/24 8:10,0.3,1,0.3,16,0.1,15
2016/12/24 8:11,0.2,1,0.2,16,0,15
2016/12/24 8:12,0.1,1,0.2,1,0,14
2016/12/24 8:13,0,1,0.1,1,0.1,5
2016/12/24 8:14,0,1,0,1,0,7
2016/12/24 8:15,0,16,0,1,0,8
2016/12/24 8:16,0,16,0,1,1,11
2016/12/24 8:17,0.1,14,0.1,1,1.3,10
2016/12/24 8:18,0.2,13,0.2,1,1.1,9
2016/12/24 8:19,0.2,12,0.2,1,1.1,11
2016/12/24 8:20,0.3,12,0.3,12,1.1,10
2016/12/24 8:21,0.4,12,0.4,12,1.1,14
2016/12/24 8:22,0.5,12,0.5,12,1.3,15
2016/12/24 8:23,0.6,12,0.6,12,1.4,15
2016/12/24 8:24,0.6,13,0.6,12,1.1,14
2016/12/24 8:25,0.6,12,0.6,12,0.4,13
2016/12/24 8:26,0.6,13,0.6,12,0,13
2016/12/24 8:27,0.5,13,0.6,12,0,13
2016/12/24 8:28,0.5,13,0.5,12,0.1,14
2016/12/24 8:29,0.4,14,0.5,12,0.1,12
2016/12/24 8:30,0.3,14,0.4,12,0.3,14
2016/12/24 8:31,0.3,14,0.3,12,0,12
2016/12/24 8:32,0.2,13,0.3,12,0,12
2016/12/24 8:33,0.1,13,0.2,12,0,12
2016/12/24 8:34,0,13,0.1,13,0,12
2016/12/24 8:35,0,13,0,12,0.6,8
2016/12/24 8:36,0,12,0,13,0.5,8
2016/12/24 8:37,0.1,12,0.1,13,1,9
2016/12/24 8:38,0.1,12,0.1,13,1,10
2016/12/24 8:39,0.1,11,0.1,14,0.8,8
2016/12/24 8:40,0.2,11,0.2,14,1.4,10
2016/12/24 8:41,0.3,10,0.3,14,1.5,9
2016/12/24 8:42,0.3,10,0.3,11,0.3,15
2016/12/24 8:43,0.3,10,0.3,11,0.5,12
2016/12/24 8:44,0.3,10,0.3,11,1.3,12
2016/12/24 8:45,0.4,11,0.4,10,1.1,12
2016/12/24 8:46,0.4,11,0.4,10,0.9,9
2016/12/24 8:47,0.4,11,0.4,10,0.1,8
2016/12/24 8:48,0.3,11,0.3,10,0.5,10
2016/12/24 8:49,0.4,11,0.4,10,0.5,10
2016/12/24 8:50,0.4,11,0.4,10,1.4,11
2016/12/24 8:51,0.4,12,0.4,10,1.5,11
2016/12/24 8:52,0.5,12,0.5,12,1.5,12
2016/12/24 8:53,0.6,12,0.6,12,1.3,12
2016/12/24 8:54,0.7,12,0.7,12,1.1,12
2016/12/24 8:55,0.6,12,0.6,12,0.6,13
2016/12/24 8:56,0.6,12,0.6,12,0.3,13
2016/12/24 8:57,0.6,12,0.6,12,1.5,7
2016/12/24 8:58,0.7,12,0.7,12,2,8
2016/12/24 8:59,0.8,12,0.8,12,2.1,9
2016/12/24 9:00,0.7,11,0.8,12,1.4,8
2016/12/24 9:01,0.6,11,0.7,12,0.6,2
2016/12/24 9:02,0.5,11,0.6,12,0.5,6
2016/12/24 9:03,0.4,11,0.5,12,0.3,16
2016/12/24 9:04,0.4,10,0.4,12,1.1,9
2016/12/24 9:05,0.5,9,0.5,12,1.4,10
2016/12/24 9:06,0.5,8,0.5,12,2.4,9
2016/12/24 9:07,0.6,8,0.6,12,1.5,9
2016/12/24 9:08,0.5,8,0.5,12,0.5,7
2016/12/24 9:09,0.4,8,0.5,12,0.8,5
2016/12/24 9:10,0.4,8,0.4,11,1.4,6
2016/12/24 9:11,0.5,8,0.5,11,1.3,6
2016/12/24 9:12,0.6,7,0.6,8,1,6
2016/12/24 9:13,0.6,7,0.6,8,0.5,3
2016/12/24 9:14,0.5,6,0.6,8,0.5,3
2016/12/24 9:15,0.5,6,0.5,8,0,4
2016/12/24 9:16,0.4,5,0.4,8,0,5
2016/12/24 9:17,0.3,5,0.3,7,0,15
2016/12/24 9:18,0.3,4,0.3,7,0.3,4
2016/12/24 9:19,0.3,4,0.3,7,0.3,4
2016/12/24 9:20,0.2,4,0.3,7,0.3,4
2016/12/24 9:21,0.1,4,0.2,7,0,4
2016/12/24 9:22,0,4,0.1,7,0,4
2016/12/24 9:23,0,4,0,7,0.1,4
2016/12/24 9:24,0,4,0,6,0.6,12
2016/12/24 9:25,0.1,4,0.1,6,1.5,11
2016/12/24 9:26,0.2,5,0.2,5,1.6,9
2016/12/24 9:27,0.2,5,0.2,5,1,10
2016/12/24 9:28,0.3,6,0.3,4,1.3,9
2016/12/24 9:29,0.4,7,0.4,7,2.2,8
2016/12/24 9:30,0.5,8,0.5,7,2.4,8
2016/12/24 9:31,0.6,8,0.6,8,1.8,8
2016/12/24 9:32,0.8,9,0.8,9,1.9,8
2016/12/24 9:33,0.9,9,0.9,9,2,8
2016/12/24 9:34,1,9,1,9,1.6,9
2016/12/24 9:35,0.9,9,1,9,1.8,9
2016/12/24 9:36,0.9,9,0.9,9,1.5,9
2016/12/24 9:37,1,9,1,9,1.6,10
2016/12/24 9:38,1,8,1,9,1.3,8
2016/12/24 9:39,0.9,8,1,9,0.8,14
2016/12/24 9:40,0.8,9,0.9,9,1.4,10
2016/12/24 9:41,0.8,9,0.8,9,1.8,8
2016/12/24 9:42,0.7,9,0.8,9,1.3,9
2016/12/24 9:43,0.7,9,0.8,9,1.5,9
2016/12/24 9:44,0.7,9,0.7,9,1,9
2016/12/24 9:45,0.7,9,0.7,9,1.3,10
2016/12/24 9:46,0.6,9,0.7,9,1.8,10
2016/12/24 9:47,0.7,9,0.7,9,1.8,10
2016/12/24 9:48,0.7,10,0.7,8,1.6,9
2016/12/24 9:49,0.8,9,0.8,9,1.5,8
2016/12/24 9:50,0.8,9,0.8,9,0.9,11
2016/12/24 9:51,0.8,9,0.8,9,2.5,8
2016/12/24 9:52,0.9,9,0.9,9,2,7
2016/12/24 9:53,0.9,9,0.9,9,2.7,7
2016/12/24 9:54,0.9,9,0.9,9,1,9
2016/12/24 9:55,0.9,9,0.9,9,1.5,8
2016/12/24 9:56,0.9,9,0.9,9,1.5,8
2016/12/24 9:57,0.8,9,0.9,9,0.9,8
2016/12/24 9:58,0.9,9,0.9,9,1.9,8
2016/12/24 9:59,1,9,1,9,2.7,9
2016/12/24 10:00,1,9,1,9,2,9
2016/12/24 10:01,1,9,1,9,2.7,10
2016/12/24 10:02,1,9,1,9,3.2,8
2016/12/24 10:03,1,9,1,9,2.6,8
2016/12/24 10:04,1,9,1,9,2.1,9
2016/12/24 10:05,1,10,1,9,1.8,9
2016/12/24 10:06,1,10,1,9,1.3,8
2016/12/24 10:07,1,10,1,9,0.6,7
2016/12/24 10:08,0.9,10,1,9,1.3,6
2016/12/24 10:09,0.9,9,0.9,9,2,6
2016/12/24 10:10,0.9,9,0.9,9,2.1,7
2016/12/24 10:11,0.9,8,1,9,2.4,7
2016/12/24 10:12,0.9,8,0.9,9,1.8,8
2016/12/24 10:13,0.9,8,0.9,9,1.8,8
2016/12/24 10:14,0.8,8,0.9,10,0.3,14
2016/12/24 10:15,0.8,8,0.8,10,0.3,9
2016/12/24 10:16,0.7,8,0.8,10,0.6,15
2016/12/24 10:17,0.7,8,0.7,10,0.5,13
2016/12/24 10:18,0.7,9,0.7,9,0,12
2016/12/24 10:19,0.6,9,0.7,9,1,7
2016/12/24 10:20,0.5,9,0.6,9,2.1,7
2016/12/24 10:21,0.5,9,0.5,8,2.1,7
2016/12/24 10:22,0.5,9,0.5,8,1.6,8
2016/12/24 10:23,0.5,9,0.5,8,2.6,9
2016/12/24 10:24,0.7,9,0.7,8,3.3,8
2016/12/24 10:25,0.9,9,0.9,9,2.4,8
2016/12/24 10:26,1.1,8,1.1,9,3.7,8
2016/12/24 10:27,1.2,8,1.2,8,1.5,9
2016/12/24 10:28,1.3,8,1.3,8,2.7,10
2016/12/24 10:29,1.4,8,1.4,8,2.4,10
2016/12/24 10:30,1.4,8,1.4,8,1.8,8
2016/12/24 10:31,1.4,9,1.4,8,2.9,8
2016/12/24 10:32,1.5,9,1.5,9,3.7,9
2016/12/24 10:33,1.5,9,1.5,9,3.1,8
2016/12/24 10:34,1.5,9,1.5,9,3.5,9
2016/12/24 10:35,1.5,9,1.5,9,3.1,8
2016/12/24 10:36,1.6,9,1.6,9,4.2,8
2016/12/24 10:37,1.8,9,1.8,9,4.2,8
2016/12/24 10:38,1.9,9,1.9,9,3.7,8
2016/12/24 10:39,1.9,9,1.9,9,2.6,8
2016/12/24 10:40,2,9,2,9,2.9,8
2016/12/24 10:41,2.1,9,2.1,9,4.1,8
2016/12/24 10:42,2.2,8,2.2,8,3.6,8
2016/12/24 10:43,2.2,8,2.3,8,3.5,8
2016/12/24 10:44,2.1,8,2.2,8,2,9
2016/12/24 10:45,2.1,8,2.1,8,2.2,9
2016/12/24 10:46,1.8,8,2.1,8,1.3,6
2016/12/24 10:47,1.5,8,1.8,8,0.5,13
2016/12/24 10:48,1.3,9,1.5,8,0.5,10
2016/12/24 10:49,1.2,8,1.3,8,1.6,8
2016/12/24 10:50,1.2,8,1.3,8,2.2,9
2016/12/24 10:51,1,9,1.2,8,1.8,10
2016/12/24 10:52,0.9,9,1,8,1.6,10
2016/12/24 10:53,0.8,9,0.8,8,1.6,10
2016/12/24 10:54,0.8,10,0.8,8,2,9
2016/12/24 10:55,0.7,10,0.8,8,0.9,11
2016/12/24 10:56,0.7,10,0.7,8,0.9,10
2016/12/24 10:57,0.7,9,0.7,8,0.5,1
2016/12/24 10:58,0.7,9,0.7,9,1,1
2016/12/24 10:59,0.7,10,0.7,8,0.8,1
2016/12/24 11:00,0.6,9,0.7,8,0.3,3
2016/12/24 11:01,0.4,8,0.5,9,0.4,8
2016/12/24 11:02,0.5,7,0.5,9,1.3,4